Regional Weather Roundup
Issued by NWS Glasgow, MT

Home | Current Version | Previous Version | Text Only | Print | Product List | Glossary On
Versions: 1 2 3 4 5 6 7 8 9 10 11 12 13 14 15 16 17 18 19 20 21 22 23 24 25 26 27 28 29 30 31 32 33 34 35 36 37 38 39 40 41 42 43 44 45 46 47 48 49 50
000
ASUS45 KGGW 261315
RWRGGW
HOURLY WEATHER ROUNDUP FOR NORTHEAST MONTANA
NATIONAL WEATHER SERVICE GLASGOW MONTANA
700 AM MDT SAT JUL 26 2014

NOTE: "FAIR" INDICATES FEW OR NO CLOUDS BELOW 12,000 FEET WITH NO
SIGNIFICANT WEATHER AND/OR OBSTRUCTIONS TO VISISBILITY.

NORTHEAST MONTANA


CITY           SKY/WX    TMP DP  RH WIND       PRES   REMARKS
GLASGOW        CLOUDY    58  49  72 W17       29.98R
PLENTYWOOD       N/A     57  50  77 W20G29      N/A
WOLF POINT     CLOUDY    60  49  66 W18       29.96R
JORDAN           N/A     57  45  64 W12       30.04R
WINNETT          N/A     52  42  69 CALM        N/A
SIDNEY         SUNNY     59  48  67 W17G25    29.94S
GLENDIVE       SUNNY     57  48  72 W15G21    30.00S
MALTA            N/A    N/A N/A N/A N14         N/A

FORT PECK REPORTS


CITY           SKY/WX    TMP DP  RH WIND       PRES   REMARKS
FORT PECK        N/A     58  48  69 W20G29      N/A
THE PINES        N/A     58  46  64 W8G17       N/A

SOUTHEAST MONTANA


CITY           SKY/WX    TMP DP  RH WIND       PRES   REMARKS
BILLINGS       SUNNY     60  36  40 W3        30.14R
MILES CITY     SUNNY     58  46  64 W8        30.06R
BAKER          SUNNY     57  46  66 W13       30.03R
LIVINGSTON     CLEAR     51  35  54 W8        30.20R

CENTRAL MONTANA


CITY           SKY/WX    TMP DP  RH WIND       PRES   REMARKS
HAVRE          SUNNY     52  46  80 SW12      30.09R
LEWISTOWN      SUNNY     50  44  80 SW6       30.17R
GREAT FALLS    CLEAR     50  40  68 SW6       30.13R
CUT BANK       CLEAR     44  41  89 W3        30.16R
HELENA         CLEAR     58  40  51 CALM      30.18R
BUTTE          CLEAR     38  30  73 CALM      30.27R
BOZEMAN        CLEAR     45  37  73 SE7       30.22R

WESTERN MONTANA


CITY           SKY/WX    TMP DP  RH WIND       PRES   REMARKS
MISSOULA       CLEAR     49  41  74 CALM      30.21R
KALISPELL      NOT AVBL

NORTH DAKOTA


CITY           SKY/WX    TMP DP  RH WIND       PRES   REMARKS
WILLISTON      SUNNY     60  50  69 W20       29.89R
DICKINSON      SUNNY     59  48  67 W12       29.94R
MINOT          SUNNY     62  51  67 SW18G28   29.80R
BISMARCK       SUNNY     62  50  64 W15       29.89R

SOUTHERN SASKATCHEWAN


CITY           SKY/WX    TMP DP  RH WIND       PRES   REMARKS
REGINA         CLOUDY    55  55 100 W22G32    29.75R
ESTEVAN        CLOUDY    59  54  82 W13G20    29.78
SWIFT CURRENT  CLOUDY    54  54 100 W17       29.92R




USA.gov is the U.S. government's official web portal to all federal, state and local government web resources and services.